Time,TemperatureF,DewpointF,PressureIn,WindDirection,WindDirectionDegrees,WindSpeedMPH,WindSpeedGustMPH,Humidity,HourlyPrecipIn,Conditions,Clouds,dailyrainin,SolarRadiationWatts/m^2,SoftwareType,DateUTC
2013-04-25 00:03:00,31.0,23.0,-100.00,WSW,247,5.0,7.0,71,0.00,,,0.00,0.000000,,2013-04-25 04:03:00,
2013-04-25 00:23:00,30.0,22.0,-100.00,SW,230,3.0,5.0,72,0.00,,,0.00,0.000000,,2013-04-25 04:23:00,
2013-04-25 00:33:00,30.0,22.0,-100.00,SW,230,3.0,5.0,72,0.00,,,0.00,0.000000,,2013-04-25 04:33:00,
2013-04-25 00:43:00,30.0,22.0,-100.00,SW,230,3.0,5.0,72,0.00,,,0.00,0.000000,,2013-04-25 04:43:00,
2013-04-25 00:52:00,30.0,22.0,-100.00,SW,230,3.0,5.0,72,0.00,,,0.00,0.000000,,2013-04-25 04:52:00,
2013-04-25 01:03:00,30.0,22.0,-100.00,SW,230,3.0,5.0,72,0.00,,,0.00,0.000000,,2013-04-25 05:03:00,
2013-04-25 01:32:00,30.0,25.0,-100.00,SSW,192,4.0,5.0,80,0.00,,,0.00,0.000000,,2013-04-25 05:32:00,
2013-04-25 01:42:00,30.0,25.0,-100.00,SSW,192,4.0,5.0,80,0.00,,,0.00,0.000000,,2013-04-25 05:42:00,
2013-04-25 01:52:00,30.0,25.0,-100.00,SSW,192,4.0,5.0,80,0.00,,,0.00,0.000000,,2013-04-25 05:52:00,
2013-04-25 02:02:00,30.0,25.0,-100.00,SSW,192,4.0,5.0,80,0.00,,,0.00,0.000000,,2013-04-25 06:02:00,
2013-04-25 02:32:00,29.0,25.0,-100.00,South,184,4.0,5.0,84,0.00,,,0.00,0.000000,,2013-04-25 06:32:00,
2013-04-25 02:42:00,29.0,25.0,-100.00,South,184,4.0,5.0,84,0.00,,,0.00,0.000000,,2013-04-25 06:42:00,
2013-04-25 02:52:00,29.0,25.0,-100.00,South,184,4.0,5.0,84,0.00,,,0.00,0.000000,,2013-04-25 06:52:00,
2013-04-25 03:02:00,29.0,25.0,-100.00,South,184,4.0,5.0,84,0.00,,,0.00,0.000000,,2013-04-25 07:02:00,
2013-04-25 03:32:00,28.0,24.0,-100.00,South,178,3.0,6.0,85,0.00,,,0.00,0.000000,,2013-04-25 07:32:00,
2013-04-25 03:42:00,28.0,24.0,-100.00,South,178,3.0,6.0,85,0.00,,,0.00,0.000000,,2013-04-25 07:42:00,
2013-04-25 03:52:00,28.0,24.0,-100.00,South,178,3.0,6.0,85,0.00,,,0.00,0.000000,,2013-04-25 07:52:00,
2013-04-25 04:02:00,28.0,24.0,-100.00,South,178,3.0,6.0,85,0.00,,,0.00,0.000000,,2013-04-25 08:02:00,
2013-04-25 04:32:00,28.0,24.0,-100.00,SSE,157,3.0,6.0,85,0.00,,,0.00,0.000000,,2013-04-25 08:32:00,
2013-04-25 04:42:00,28.0,24.0,-100.00,SSE,157,3.0,6.0,85,0.00,,,0.00,0.000000,,2013-04-25 08:42:00,
2013-04-25 04:52:00,28.0,24.0,-100.00,SSE,157,3.0,6.0,85,0.00,,,0.00,0.000000,,2013-04-25 08:52:00,
2013-04-25 05:01:00,28.0,24.0,-100.00,SSE,157,3.0,6.0,85,0.00,,,0.00,0.000000,,2013-04-25 09:01:00,
2013-04-25 05:33:00,29.0,25.0,-100.00,South,172,2.0,5.0,84,0.00,,,0.00,0.000000,,2013-04-25 09:33:00,
2013-04-25 05:42:00,29.0,25.0,-100.00,South,172,2.0,5.0,84,0.00,,,0.00,0.000000,,2013-04-25 09:42:00,
2013-04-25 05:53:00,29.0,25.0,-100.00,South,172,2.0,5.0,84,0.00,,,0.00,0.000000,,2013-04-25 09:53:00,
2013-04-25 06:02:00,29.0,25.0,-100.00,South,172,2.0,5.0,84,0.00,,,0.00,0.000000,,2013-04-25 10:02:00,
2013-04-25 06:22:00,30.0,25.0,-100.00,South,190,4.0,7.0,83,0.00,,,0.00,0.000000,,2013-04-25 10:22:00,
2013-04-25 06:33:00,30.0,25.0,-100.00,South,190,4.0,7.0,83,0.00,,,0.00,0.000000,,2013-04-25 10:33:00,
2013-04-25 06:42:00,30.0,25.0,-100.00,South,190,4.0,7.0,83,0.00,,,0.00,0.000000,,2013-04-25 10:42:00,
2013-04-25 06:53:00,30.0,25.0,-100.00,South,190,4.0,7.0,83,0.00,,,0.00,0.000000,,2013-04-25 10:53:00,
2013-04-25 07:02:00,30.0,25.0,-100.00,South,190,4.0,7.0,83,0.00,,,0.00,0.000000,,2013-04-25 11:02:00,
2013-04-25 07:22:00,31.0,26.0,-100.00,South,174,6.0,11.0,82,0.00,,,0.00,2.000000,,2013-04-25 11:22:00,
2013-04-25 07:33:00,31.0,26.0,-100.00,South,174,6.0,11.0,82,0.00,,,0.00,2.000000,,2013-04-25 11:33:00,
2013-04-25 07:42:00,31.0,26.0,-100.00,South,174,6.0,11.0,82,0.00,,,0.00,2.000000,,2013-04-25 11:42:00,
2013-04-25 07:52:00,31.0,26.0,-100.00,South,174,6.0,11.0,82,0.00,,,0.00,2.000000,,2013-04-25 11:52:00,
2013-04-25 08:01:00,31.0,26.0,-100.00,South,174,6.0,11.0,82,0.00,,,0.00,2.000000,,2013-04-25 12:01:00,
2013-04-25 08:22:00,31.0,30.0,-100.00,SSE,157,5.0,9.0,95,0.00,,,0.00,16.000000,,2013-04-25 12:22:00,
2013-04-25 08:32:00,31.0,30.0,-100.00,SSE,157,5.0,9.0,95,0.00,,,0.00,16.000000,,2013-04-25 12:32:00,
2013-04-25 08:42:00,31.0,30.0,-100.00,SSE,157,5.0,9.0,95,0.00,,,0.00,16.000000,,2013-04-25 12:42:00,
2013-04-25 08:52:00,31.0,30.0,-100.00,SSE,157,5.0,9.0,95,0.00,,,0.00,16.000000,,2013-04-25 12:52:00,
2013-04-25 09:02:00,31.0,30.0,-100.00,SSE,157,5.0,9.0,95,0.00,,,0.00,16.000000,,2013-04-25 13:02:00,
2013-04-25 09:32:00,33.0,32.0,-100.00,SE,125,4.0,7.0,96,0.00,,,0.00,36.000000,,2013-04-25 13:32:00,
2013-04-25 09:42:00,33.0,32.0,-100.00,SE,125,4.0,7.0,96,0.00,,,0.00,36.000000,,2013-04-25 13:42:00,
2013-04-25 09:53:00,33.0,32.0,-100.00,SE,125,4.0,7.0,96,0.00,,,0.00,36.000000,,2013-04-25 13:53:00,
2013-04-25 10:02:00,33.0,32.0,-100.00,SE,125,4.0,7.0,96,0.00,,,0.00,36.000000,,2013-04-25 14:02:00,
2013-04-25 10:32:00,35.0,33.0,-100.00,SE,125,4.0,8.0,92,0.04,,,0.04,109.000000,,2013-04-25 14:32:00,
2013-04-25 10:42:00,35.0,33.0,-100.00,SE,125,4.0,8.0,92,0.04,,,0.04,109.000000,,2013-04-25 14:42:00,
2013-04-25 10:52:00,35.0,33.0,-100.00,SE,125,4.0,8.0,92,0.04,,,0.04,109.000000,,2013-04-25 14:52:00,
2013-04-25 11:02:00,35.0,33.0,-100.00,SE,125,4.0,8.0,92,0.04,,,0.04,109.000000,,2013-04-25 15:02:00,
2013-04-25 11:33:00,35.0,33.0,-100.00,East,96,3.0,7.0,92,0.01,,,0.05,110.000000,,2013-04-25 15:33:00,
2013-04-25 11:42:00,35.0,33.0,-100.00,East,96,3.0,7.0,92,0.01,,,0.05,110.000000,,2013-04-25 15:42:00,
2013-04-25 11:53:00,35.0,33.0,-100.00,East,96,3.0,7.0,92,0.01,,,0.05,110.000000,,2013-04-25 15:53:00,
2013-04-25 12:02:00,35.0,33.0,-100.00,East,96,3.0,7.0,92,0.01,,,0.05,110.000000,,2013-04-25 16:02:00,
2013-04-25 12:33:00,36.0,34.0,-100.00,NNE,22,2.0,5.0,92,0.00,,,0.05,70.000000,,2013-04-25 16:33:00,
2013-04-25 12:43:00,36.0,34.0,-100.00,NNE,22,2.0,5.0,92,0.00,,,0.05,70.000000,,2013-04-25 16:43:00,
2013-04-25 12:53:00,36.0,34.0,-100.00,NNE,22,2.0,5.0,92,0.00,,,0.05,70.000000,,2013-04-25 16:53:00,
2013-04-25 13:02:00,36.0,34.0,-100.00,NNE,22,2.0,5.0,92,0.00,,,0.05,70.000000,,2013-04-25 17:02:00,
2013-04-25 13:22:00,35.0,33.0,-100.00,NNW,330,7.0,12.0,92,0.06,,,0.11,161.000000,,2013-04-25 17:22:00,
2013-04-25 13:32:00,35.0,33.0,-100.00,NNW,330,7.0,12.0,92,0.06,,,0.11,161.000000,,2013-04-25 17:32:00,
2013-04-25 13:42:00,35.0,33.0,-100.00,NNW,330,7.0,12.0,92,0.06,,,0.11,161.000000,,2013-04-25 17:42:00,
2013-04-25 13:53:00,35.0,33.0,-100.00,NNW,330,7.0,12.0,92,0.06,,,0.11,161.000000,,2013-04-25 17:53:00,
2013-04-25 14:01:00,35.0,33.0,-100.00,NNW,330,7.0,12.0,92,0.06,,,0.11,161.000000,,2013-04-25 18:01:00,
2013-04-25 14:32:00,35.0,33.0,-100.00,NNW,337,10.0,20.0,91,0.05,,,0.16,319.000000,,2013-04-25 18:32:00,
2013-04-25 14:43:00,35.0,33.0,-100.00,NNW,337,10.0,20.0,91,0.05,,,0.16,319.000000,,2013-04-25 18:43:00,
2013-04-25 14:53:00,35.0,33.0,-100.00,NNW,337,10.0,20.0,91,0.05,,,0.16,319.000000,,2013-04-25 18:53:00,
2013-04-25 15:02:00,35.0,33.0,-100.00,NNW,337,10.0,20.0,91,0.05,,,0.16,319.000000,,2013-04-25 19:02:00,
2013-04-25 15:21:00,35.0,33.0,-100.00,NNW,339,12.0,21.0,92,0.02,,,0.18,263.000000,,2013-04-25 19:21:00,
2013-04-25 15:32:00,35.0,33.0,-100.00,NNW,339,12.0,21.0,92,0.02,,,0.18,263.000000,,2013-04-25 19:32:00,
2013-04-25 15:42:00,35.0,33.0,-100.00,NNW,339,12.0,21.0,92,0.02,,,0.18,263.000000,,2013-04-25 19:42:00,
2013-04-25 15:52:00,35.0,33.0,-100.00,NNW,339,12.0,21.0,92,0.02,,,0.18,263.000000,,2013-04-25 19:52:00,
2013-04-25 16:02:00,35.0,33.0,-100.00,NNW,339,12.0,21.0,92,0.02,,,0.18,263.000000,,2013-04-25 20:02:00,
2013-04-25 16:32:00,36.0,33.0,-100.00,NNW,335,10.0,20.0,88,0.00,,,0.18,287.000000,,2013-04-25 20:32:00,
2013-04-25 16:43:00,36.0,33.0,-100.00,NNW,335,10.0,20.0,88,0.00,,,0.18,287.000000,,2013-04-25 20:43:00,
2013-04-25 16:52:00,36.0,33.0,-100.00,NNW,335,10.0,20.0,88,0.00,,,0.18,287.000000,,2013-04-25 20:52:00,
2013-04-25 17:01:00,36.0,33.0,-100.00,NNW,335,10.0,20.0,88,0.00,,,0.18,287.000000,,2013-04-25 21:01:00,
2013-04-25 17:22:00,42.0,34.0,-100.00,NW,319,9.0,17.0,72,0.00,,,0.18,504.000000,,2013-04-25 21:22:00,
2013-04-25 17:33:00,42.0,34.0,-100.00,NW,319,9.0,17.0,72,0.00,,,0.18,504.000000,,2013-04-25 21:33:00,
2013-04-25 17:42:00,42.0,34.0,-100.00,NW,319,9.0,17.0,72,0.00,,,0.18,504.000000,,2013-04-25 21:42:00,
2013-04-25 17:53:00,42.0,34.0,-100.00,NW,319,9.0,17.0,72,0.00,,,0.18,504.000000,,2013-04-25 21:53:00,
2013-04-25 18:03:00,42.0,34.0,-100.00,NW,319,9.0,17.0,72,0.00,,,0.18,504.000000,,2013-04-25 22:03:00,
2013-04-25 18:33:00,43.0,27.0,-100.00,NNW,339,7.0,18.0,53,0.00,,,0.18,421.000000,,2013-04-25 22:33:00,
2013-04-25 18:42:00,43.0,27.0,-100.00,NNW,339,7.0,18.0,53,0.00,,,0.18,421.000000,,2013-04-25 22:42:00,
2013-04-25 18:53:00,43.0,27.0,-100.00,NNW,339,7.0,18.0,53,0.00,,,0.18,421.000000,,2013-04-25 22:53:00,
2013-04-25 19:02:00,43.0,27.0,-100.00,NNW,339,7.0,18.0,53,0.00,,,0.18,421.000000,,2013-04-25 23:02:00,
2013-04-25 19:32:00,44.0,27.0,-100.00,North,349,5.0,12.0,51,0.00,,,0.18,198.000000,,2013-04-25 23:32:00,
2013-04-25 19:42:00,44.0,27.0,-100.00,North,349,5.0,12.0,51,0.00,,,0.18,198.000000,,2013-04-25 23:42:00,
2013-04-25 19:52:00,44.0,27.0,-100.00,North,349,5.0,12.0,51,0.00,,,0.18,198.000000,,2013-04-25 23:52:00,
2013-04-25 20:01:00,44.0,27.0,-100.00,North,349,5.0,12.0,51,0.00,,,0.18,198.000000,,2013-04-26 00:01:00,
2013-04-25 20:22:00,41.0,24.0,-100.00,North,351,5.0,10.0,50,0.00,,,0.18,192.000000,,2013-04-26 00:22:00,
2013-04-25 20:32:00,41.0,24.0,-100.00,North,351,5.0,10.0,50,0.00,,,0.18,192.000000,,2013-04-26 00:32:00,
2013-04-25 20:42:00,41.0,24.0,-100.00,North,351,5.0,10.0,50,0.00,,,0.18,192.000000,,2013-04-26 00:42:00,
2013-04-25 20:52:00,41.0,24.0,-100.00,North,351,5.0,10.0,50,0.00,,,0.18,192.000000,,2013-04-26 00:52:00,
2013-04-25 21:01:00,41.0,24.0,-100.00,North,351,5.0,10.0,50,0.00,,,0.18,192.000000,,2013-04-26 01:01:00,
2013-04-25 21:22:00,33.0,25.0,-100.00,NNW,342,1.0,6.0,73,0.00,,,0.18,10.000000,,2013-04-26 01:22:00,
2013-04-25 21:32:00,33.0,25.0,-100.00,NNW,342,1.0,6.0,73,0.00,,,0.18,10.000000,,2013-04-26 01:32:00,
2013-04-25 21:42:00,33.0,25.0,-100.00,NNW,342,1.0,6.0,73,0.00,,,0.18,10.000000,,2013-04-26 01:42:00,
2013-04-25 21:52:00,33.0,25.0,-100.00,NNW,342,1.0,6.0,73,0.00,,,0.18,10.000000,,2013-04-26 01:52:00,
2013-04-25 22:02:00,33.0,25.0,-100.00,NNW,342,1.0,6.0,73,0.00,,,0.18,10.000000,,2013-04-26 02:02:00,
2013-04-25 22:32:00,27.0,24.0,-100.00,West,266,4.0,6.0,89,0.00,,,0.18,0.000000,,2013-04-26 02:32:00,
2013-04-25 22:42:00,27.0,24.0,-100.00,West,266,4.0,6.0,89,0.00,,,0.18,0.000000,,2013-04-26 02:42:00,
2013-04-25 22:52:00,27.0,24.0,-100.00,West,266,4.0,6.0,89,0.00,,,0.18,0.000000,,2013-04-26 02:52:00,
2013-04-25 23:01:00,27.0,24.0,-100.00,West,266,4.0,6.0,89,0.00,,,0.18,0.000000,,2013-04-26 03:01:00,
2013-04-25 23:22:00,25.0,23.0,-100.00,NE,41,1.0,4.0,91,0.00,,,0.18,0.000000,,2013-04-26 03:22:00,
2013-04-25 23:33:00,25.0,23.0,-100.00,NE,41,1.0,4.0,91,0.00,,,0.18,0.000000,,2013-04-26 03:33:00,
2013-04-25 23:43:00,25.0,23.0,-100.00,NE,41,1.0,4.0,91,0.00,,,0.18,0.000000,,2013-04-26 03:43:00,
2013-04-25 23:53:00,25.0,23.0,-100.00,NE,41,1.0,4.0,91,0.00,,,0.18,0.000000,,2013-04-26 03:53:00,